一网星座-0113星 (ONEWEB-0113 )

导读

ONEWEB-0113是英国主导的OneWeb低轨宽带通信星座卫星,2021年3月25日成功发射入轨。卫星重约147.5kg,运行于1200公里近地轨道,配备Ku/Ka波段天线,单星通信能力约7.5Gbps,可提供最高50Mbps下载速率。作为OneWeb一期组网卫星,它承担全球宽带互联网覆盖任务,为偏远地区、海运航空提供通信服务,设计寿命5年,失效后将主动离轨烧毁,减少太空垃圾。

基本信息
目录编号:
48050
目录名称:
ONEWEB-0113
国际标识:
2021-025J
轨道中心:
EARTH
卫星名称:
一网星座-0113星
卫星全名:
一网星座-0113星 (ONEWEB-0113 )
卫星状态:
在轨 (已飞行2000 天)
发射日期:
2021-03-25 UTC
国别 :
英国 (GB)
星等 :
--
该卫星已列入 空间交会检测服务 Space Conjunction Data Service (SCDS) ,当前飞行风险评估等级: 无高风险
轨道信息
数据来源 国际轨道数据 AOE轨道数据
星历时间 2026-09-15T21:28:55+0800
10小时前
查看轨道信息
2026-09-16T00:00:00+0800
7小时前
查看轨道信息
半长轴 7586.278km 7586.25km
偏心率 0.0001959 0.0001979
轨道倾角 87.892° 87.893°
近地点辐角 100.828° 77.373°
升交点赤经 302.143° 302.119°
平近点角 259.307° 58.790°
近地点 1206.654km 1206.611km
远地点 1209.628km 1209.615km
周期 109.598分钟 109.597分钟
每日圈数 13.138919 13.138992
详细信息
平衡模式:
三轴稳定
覆盖范围:
全球
运营商:
一网卫星公司
运营商所在国:
英国
制造商(研发单位):
一网卫星公司
制造商所在国:
英国
使用方式:
暂无
卫星简介
OneWeb卫星网络由648颗重约125公斤的微型卫星组成,运行在1200公里的轨道上。 每颗卫星都能够提供至少每秒8千兆位的吞吐量,以使用其高吞吐量的Ku频段有效载荷为家庭和移动平台提供互联网接入。该卫星仍在工作。
2D轨道图
3D轨道图
轨道高度分析图
轨道倾角分析图
轨道综合分析图
查看轨道综合分析图
与全量物体交会距离演化趋势 订阅飞行安全评估服务
与全量物体交会风险概率演化趋势 订阅飞行安全评估服务